Sunshine Coast Airport Observation History
Time Wind Speed Temp Pressure Rel. Hum Rain
30/10:30am ESE 6-8 kts 26.1°c 1016.9 hPa 100% 0.0mm
30/10:00am ESE 7-9 kts 25.8°c 1016.9 hPa 100% 0.0mm
30/09:30am ESE 5-7 kts 26.0°c 1016.9 hPa 100% 0.0mm
30/09:00am SSW 5-8 kts 24.7°c 1017.0 hPa 100% 0.2mm
30/08:30am S 6-9 kts 24.5°c 1017.0 hPa 100% 0.2mm
30/08:00am SSW 5-6 kts 22.5°c 1017.1 hPa 100% 0.2mm
30/07:30am WSW 4-5 kts 21.0°c 1016.7 hPa 100% 0.2mm
30/07:00am WSW 2-4 kts 20.2°c 1016.5 hPa 100% 0.2mm
30/06:30am WSW 2-3 kts 19.2°c 1016.0 hPa 100% 0.2mm
30/06:00am WSW 3-5 kts 18.9°c 1015.8 hPa 100% 0.2mm
30/05:30am WSW 4 kts 18.9°c 1015.8 hPa 100% 0.2mm
30/05:00am WSW 3-4 kts 18.9°c 1015.6 hPa 100% 0.2mm
30/04:30am WSW 4 kts 18.9°c 1015.5 hPa 100% 0.2mm
30/04:00am WSW 3-5 kts 19.4°c 1015.7 hPa 100% 0.2mm
30/03:30am WSW 3-4 kts 19.5°c 1015.9 hPa 100% 0.2mm
30/03:00am WSW 3-4 kts 19.8°c 1016.0 hPa 100% 0.2mm
30/02:30am SW 3-4 kts 19.7°c 1016.3 hPa 100% 0.2mm
30/02:00am WSW 3-5 kts 20.1°c 1016.3 hPa 100% 0.2mm
30/01:30am W 2-5 kts 20.2°c 1016.8 hPa 100% 0.2mm
30/01:00am WSW 3-5 kts 20.6°c 1017.1 hPa 100% 0.2mm
30/12:30am SW 4-5 kts 20.9°c 1017.3 hPa 100% 0.2mm
30/12:00am SW 4-5 kts 21.2°c 1017.4 hPa 100% 0.2mm
Time Wind Speed Temp Pressure Rel. Hum Rain
29/11:30pm WSW 6-8 kts 21.5°c 1017.4 hPa 100% 0.2mm
29/11:00pm NNW 4-6 kts 21.5°c 1017.6 hPa 100% 0.2mm
29/10:30pm WNW 2-4 kts 21.6°c 1017.7 hPa 100% 0.2mm
29/10:00pm WNW 5-7 kts 21.6°c 1018.0 hPa 100% 0.2mm
29/09:30pm ESE 4-5 kts 23.6°c 1018.1 hPa 100% 0.2mm
29/09:00pm ESE 6-8 kts 24.0°c 1017.8 hPa 100% 0.2mm
29/08:30pm ESE 7-10 kts 24.1°c 1017.8 hPa 100% 0.2mm
29/08:00pm ESE 7-10 kts 24.0°c 1017.7 hPa 100% 0.2mm
29/07:30pm ESE 6-9 kts 23.9°c 1017.6 hPa 100% 0.2mm
29/07:00pm ESE 7-9 kts 24.0°c 1017.3 hPa 100% 0.2mm
29/06:30pm ESE 8-11 kts 24.1°c 1017.2 hPa 100% 0.2mm
29/06:00pm ESE 8-11 kts 24.1°c 1016.8 hPa 100% 0.2mm
29/05:30pm ESE 8-11 kts 24.1°c 1016.6 hPa 100% 0.2mm
29/05:00pm ESE 8-12 kts 24.5°c 1016.3 hPa 100% 0.2mm
29/04:30pm SE 9-13 kts 24.9°c 1016.1 hPa 100% 0.2mm
29/04:00pm SE 10-13 kts 25.5°c 1016.1 hPa 100% 0.2mm
29/03:30pm SE 10-13 kts 25.9°c 1015.9 hPa 100% 0.2mm
29/03:00pm SE 9-12 kts 26.1°c 1016.1 hPa 100% 0.2mm
29/02:30pm SE 8-11 kts 26.2°c 1016.2 hPa 100% 0.2mm
29/02:00pm SE 9-11 kts 25.8°c 1016.4 hPa 100% 0.2mm
29/01:30pm SE 8-10 kts 25.6°c 1016.6 hPa 100% 0.2mm
29/01:00pm SE 11-15 kts 25.7°c 1016.8 hPa 100% 0.2mm
29/12:30pm SE 10-12 kts 25.7°c 1017.1 hPa 100% 0.2mm
29/12:00pm SE 9-12 kts 25.2°c 1017.5 hPa 100% 0.2mm
29/11:30am SE 9-12 kts 25.3°c 1017.9 hPa 100% 0.2mm
29/11:00am SE 9-12 kts 25.1°c 1018.2 hPa 100% 0.2mm
29/10:30am SE 8-11 kts 25.2°c 1018.4 hPa 100% 0.2mm
29/10:00am SSE 8-11 kts 24.3°c 1018.6 hPa 100% 0.2mm
29/09:30am SSW 6-8 kts 22.8°c 1018.8 hPa 100% 0.0mm
29/09:00am SSW 6-9 kts 21.6°c 1018.7 hPa 100% 3.0mm
29/08:30am SSW 5-8 kts 21.2°c 1018.7 hPa 100% 2.8mm
29/08:20am SSW 7-9 kts 21.1°c 1018.8 hPa 100% 2.8mm
29/08:03am SSW 7-9 kts 20.7°c 1018.9 hPa 100% 2.6mm
29/08:00am SSW 7-9 kts 20.7°c 1018.8 hPa 100% 2.6mm
29/07:30am SSW 9-12 kts 20.5°c 1018.5 hPa 100% 2.0mm
29/07:00am SSW 9-13 kts 20.2°c 1018.1 hPa 100% 2.0mm
29/06:30am SW 3-5 kts 19.7°c 1017.5 hPa 100% 2.0mm
29/06:00am WSW 5-6 kts 19.7°c 1017.1 hPa 100% 2.0mm
29/05:30am WSW 4-6 kts 19.6°c 1016.8 hPa 100% 2.0mm
29/05:00am WSW 5-6 kts 19.8°c 1016.4 hPa 100% 2.0mm
29/04:34am SSW 9-11 kts 20.3°c 1016.4 hPa 100% 2.0mm
29/04:30am SSW 10-15 kts 20.3°c 1016.4 hPa 100% 2.0mm
29/04:20am S 6-14 kts 20.3°c 1016.6 hPa 100% 2.0mm
29/04:00am WSW 4-5 kts 19.9°c 1016.5 hPa 100% 2.0mm
29/03:30am SW 5-7 kts 20.1°c 1016.5 hPa 100% 2.0mm
29/03:20am SW 6-7 kts 20.1°c 1016.5 hPa 100% 1.8mm
29/03:00am SW 4-6 kts 20.0°c 1016.7 hPa 100% 1.4mm
29/02:30am WNW 7-8 kts 19.6°c 1016.6 hPa 100% 1.4mm
29/02:00am W 4-6 kts 19.7°c 1017.1 hPa 100% 1.4mm
29/01:30am WNW 5 kts 19.9°c 1017.1 hPa 100% 1.4mm
29/01:20am WNW 4-5 kts 19.7°c 1017.3 hPa 100% 1.4mm
29/01:00am W 5-6 kts 19.8°c 1017.4 hPa 100% 1.4mm
29/12:48am WSW 5-7 kts 19.9°c 1017.6 hPa 100% 1.4mm
29/12:30am WSW 3-6 kts 19.9°c 1017.6 hPa 100% 1.4mm
29/12:15am WSW 4-5 kts 19.8°c 1017.8 hPa 100% 1.4mm
29/12:00am W 3-5 kts 19.8°c 1018.0 hPa 100% 1.4mm
Time Wind Speed Temp Pressure Rel. Hum Rain
28/11:56pm W 4-6 kts 19.9°c 1018.0 hPa 100% 1.4mm
28/11:30pm W 3-4 kts 19.4°c 1018.0 hPa 100% 1.2mm
28/11:00pm SW 3-5 kts 19.8°c 1017.9 hPa 100% 1.0mm
28/10:30pm SSW 5-6 kts 20.2°c 1018.2 hPa 100% 1.0mm
28/10:00pm SW 5-6 kts 20.2°c 1018.6 hPa 100% 1.0mm
28/09:30pm SSW 6-7 kts 20.4°c 1018.7 hPa 100% 1.0mm
28/09:00pm SSW 4-6 kts 20.7°c 1018.7 hPa 100% 1.0mm
28/08:30pm SSW 5-6 kts 20.8°c 1018.4 hPa 100% 1.0mm
28/08:00pm SW 5-6 kts 20.9°c 1018.3 hPa 100% 1.0mm
28/07:30pm S 4-5 kts 21.8°c 1018.1 hPa 100% 1.0mm
28/07:00pm ESE 8-10 kts 22.5°c 1017.9 hPa 100% 1.0mm
28/06:30pm S 4-6 kts 22.2°c 1018.0 hPa 100% 1.0mm
28/06:00pm E 2-4 kts 22.9°c 1017.9 hPa 100% 1.0mm
28/05:30pm E 4-5 kts 22.6°c 1017.6 hPa 100% 1.0mm
28/05:00pm ESE 6-7 kts 22.6°c 1017.4 hPa 100% 1.0mm
28/04:30pm ENE 5-7 kts 22.4°c 1017.3 hPa 100% 1.0mm
28/04:01pm ESE 8-11 kts 21.3°c 1017.4 hPa 100% 1.0mm
28/04:00pm ESE 8-11 kts 21.3°c 1017.5 hPa 100% 1.0mm
28/03:45pm E 13-18 kts 20.7°c 1017.5 hPa 100% 0.8mm
28/03:43pm E 13-18 kts 21.3°c 1017.5 hPa 100% 0.8mm
28/03:35pm E 15-22 kts 22.5°c 1017.4 hPa 100% 0.0mm
28/03:30pm ESE 14-22 kts 22.8°c 1017.4 hPa 100% 0.0mm
28/03:00pm SSE 11-15 kts 24.8°c 1017.3 hPa 100% 0.0mm
28/02:30pm SSE 9-11 kts 24.1°c 1017.5 hPa 100% 0.0mm
28/02:00pm SE 15-21 kts 23.5°c 1017.5 hPa 100% 0.0mm
28/01:30pm SSE 14-19 kts 25.3°c 1017.6 hPa 100% 0.0mm
28/01:00pm SSE 15-20 kts 25.6°c 1017.8 hPa 100% 0.0mm
28/12:30pm SSE 15-19 kts 24.9°c 1018.1 hPa 100% 0.0mm
28/12:00pm SSE 16-22 kts 25.1°c 1018.5 hPa 100% 0.0mm
28/11:30am SSE 12-16 kts 25.3°c 1018.9 hPa 100% 0.0mm
28/11:00am SSE 12-17 kts 24.7°c 1019.2 hPa 100% 0.0mm
28/10:30am S 12-16 kts 24.5°c 1019.4 hPa 100% 0.0mm
28/10:00am S 13-19 kts 23.5°c 1019.7 hPa 100% 0.0mm
28/09:30am S 12-17 kts 22.8°c 1019.6 hPa 100% 0.0mm
28/09:00am S 11-15 kts 22.3°c 1019.5 hPa 100% 24.2mm
28/08:30am SSW 12-16 kts 21.4°c 1019.4 hPa 100% 24.2mm
28/08:00am S 11-15 kts 20.5°c 1019.3 hPa 100% 24.2mm
28/07:30am SSW 10-13 kts 19.5°c 1018.9 hPa 100% 24.2mm
28/07:00am SSW 10-13 kts 19.1°c 1019.0 hPa 100% 24.2mm
28/06:42am SSW 9-12 kts 19.0°c 1018.9 hPa 100% 24.2mm
28/06:37am SSW 8-12 kts 19.0°c 1018.9 hPa 100% 24.2mm
28/06:30am SSW 6-9 kts 18.9°c 1018.8 hPa 100% 24.0mm
28/06:27am SSW 7-9 kts 18.9°c 1018.8 hPa 100% 24.0mm
28/06:16am SSW 9-13 kts 19.0°c 1018.9 hPa 100% 22.8mm
28/06:00am SW 9-13 kts 19.0°c 1018.4 hPa 100% 21.6mm
28/05:30am SSW 11-15 kts 19.0°c 1018.3 hPa 100% 21.2mm
28/05:02am SSW 12-17 kts 18.8°c 1018.1 hPa 100% 20.4mm
28/05:00am SSW 13-17 kts 18.8°c 1018.0 hPa 100% 20.4mm
28/04:36am SSW 10-13 kts 18.8°c 1018.1 hPa 100% 20.4mm
28/04:30am SSW 7-12 kts 18.8°c 1018.1 hPa 100% 20.2mm
28/04:10am NE 3-4 kts 18.8°c 1018.0 hPa 100% 18.2mm
28/04:07am E 2-4 kts 18.9°c 1017.9 hPa 100% 17.8mm
28/04:01am S 2-6 kts 18.9°c 1018.0 hPa 100% 17.6mm
28/04:00am SSW 3-6 kts 18.9°c 1018.0 hPa 100% 17.6mm
28/03:30am SSW 11-16 kts 19.2°c 1017.9 hPa 100% 16.6mm
28/03:18am SSW 11-16 kts 19.6°c 1017.8 hPa 100% 15.8mm
28/03:00am SSW 12-15 kts 20.0°c 1017.9 hPa 100% 15.4mm
28/02:30am SSW 13-17 kts 20.3°c 1018.1 hPa 100% 15.4mm
28/02:00am S 10-13 kts 20.2°c 1018.4 hPa 100% 15.4mm
28/01:30am SSW 10-13 kts 20.0°c 1018.6 hPa 100% 15.4mm
28/01:00am SSW 10-13 kts 19.9°c 1019.0 hPa 100% 15.4mm
28/12:30am S 11-15 kts 19.9°c 1019.2 hPa 100% 15.4mm
28/12:00am S 10-13 kts 20.3°c 1019.2 hPa 100% 15.4mm